This is the latest recevied weather packets stored in our database for station/object p43g-13. If no packets are shown the sender has not sent any weather packets the latest 10 day(s).
| Time | Temp. | Humidity | Pressure | Rain* | Wind** | Luminosity | Snow |
|---|---|---|---|---|---|---|---|
| 1787917500 | 27.78° C | 88% | 1011.6 hPa | 1.52 mm | - | 127 W/m² | - |
| 1787917200 | 27.78° C | 88% | 1011.7 hPa | 1.52 mm | - | 122 W/m² | - |
| 1787916900 | 27.22° C | 88% | 1011.5 hPa | 1.52 mm | - | 130 W/m² | - |
| 1787916601 | 26.67° C | 88% | 1011.3 hPa | 1.52 mm | - | 129 W/m² | - |
| 1787916300 | 26.67° C | 89% | 1011.6 hPa | 1.52 mm | - | 125 W/m² | - |
| 1787916000 | 26.67° C | 89% | 1011.4 hPa | 1.52 mm | - | 96 W/m² | - |
| 1787915700 | 26.67° C | 90% | 1011.5 hPa | 1.52 mm | - | 70 W/m² | - |
| 1787915400 | 26.67° C | 90% | 1011.4 hPa | 1.52 mm | - | 64 W/m² | - |
| 1787915094 | 26.67° C | 90% | 1011.5 hPa | 1.52 mm | - | 52 W/m² | - |
| 1787914788 | 26.67° C | 89% | 1011.3 hPa | 1.52 mm | - | 41 W/m² | - |
| 1787914488 | 27.22° C | 87% | 1011.2 hPa | 1.52 mm | - | 17 W/m² | - |
| 1787914188 | 28.33° C | 83% | 1011.2 hPa | 0 mm | - | 9 W/m² | - |
| 1787913888 | 28.33° C | 83% | 1011 hPa | 0 mm | - | 9 W/m² | - |
| 1787913587 | 28.33° C | 82% | 1011.1 hPa | 0 mm | - | 10 W/m² | - |
| 1787913287 | 28.33° C | 82% | 1011.1 hPa | 0 mm | - | 6 W/m² | - |
| 1787912989 | 28.33° C | 81% | 1011 hPa | 0 mm | - | 3 W/m² | - |
| 1787912688 | 28.33° C | 82% | 1011 hPa | 0 mm | - | 2 W/m² | - |
| 1787912388 | 28.33° C | 82% | 1010.9 hPa | 0 mm | - | 0 W/m² | - |
| 1787912088 | 28.33° C | 82% | 1010.7 hPa | 0 mm | - | 0 W/m² | - |
| 1787911788 | 28.33° C | 82% | 1010.8 hPa | 0 mm | - | 0 W/m² | - |
| 1787911487 | 28.33° C | 82% | 1010.8 hPa | 0 mm | - | 0 W/m² | - |
| 1787911188 | 28.33° C | 82% | 1011 hPa | 0 mm | - | 0 W/m² | - |
| 1787910888 | 28.33° C | 82% | 1011 hPa | 0 mm | - | 0 W/m² | - |
| 1787910588 | 28.33° C | 82% | 1010.8 hPa | 0 mm | - | 0 W/m² | - |
| 1787910276 | 28.33° C | 82% | 1010.9 hPa | 0 mm | - | 0 W/m² | - |
* Rain latest hour (hover to see other rain measurements)
** Current wind speed in m/s (hover to see current wind gust speed)